Location: Unspecified
(58.9933°N, 5.6375°E)
Time: 17:15:49
(UTC+02:00)

Okean 3 - Visible Passes

Search period start: 29 September 2016 00:00
Search period end: 09 October 2016 00:00
Orbit: 577 x 604 km, 82.5° (Epoch: 28 September)

Date Brightness Start Highest point End Pass type
(mag) Time Alt. Az. Time Alt. Az. Time Alt. Az.
29 Sep 4.9 03:16:28 35° NE 03:16:28 35° NE 03:19:07 10° NNE visible
29 Sep 4.8 04:53:03 25° NW 04:53:03 25° NW 04:56:10 10° N visible
30 Sep 6.4 01:48:28 11° NE 01:48:28 11° NE 01:48:55 10° NE visible
30 Sep 4.9 03:25:02 36° NNE 03:25:02 36° NNE 03:27:37 10° NNE visible
30 Sep 5.1 05:01:37 20° NW 05:01:37 20° NW 05:04:25 10° N visible
01 Oct 6.3 01:57:02 13° NE 01:57:02 13° NE 01:57:55 10° NE visible
01 Oct 4.9 03:33:36 34° N 03:33:36 34° N 03:36:04 10° NNE visible
01 Oct 5.4 05:10:10 16° NW 05:10:10 16° NW 05:12:36 10° NNW visible
02 Oct 6.2 02:05:35 15° NE 02:05:35 15° NE 02:06:41 10° NE visible
02 Oct 5.0 03:42:09 31° N 03:42:09 31° N 03:44:29 10° N visible
02 Oct 5.6 05:18:43 13° NW 05:18:43 13° NW 05:20:37 10° NNW visible
03 Oct 6.1 02:14:07 17° NE 02:14:07 17° NE 02:15:21 10° NNE visible
03 Oct 5.2 03:50:41 27° NNW 03:50:41 27° NNW 03:52:53 10° N visible
03 Oct 5.8 05:27:16 11° NW 05:27:16 11° NW 05:28:14 10° NNW visible
04 Oct 6.0 02:22:38 18° NNE 02:22:38 18° NNE 02:23:56 10° NNE visible
04 Oct 5.4 03:59:12 23° NNW 03:59:12 23° NNW 04:01:13 10° N visible
05 Oct 6.0 02:31:09 19° NNE 02:31:09 19° NNE 02:32:28 10° NNE visible
05 Oct 5.5 04:07:43 20° NNW 04:07:43 20° NNW 04:09:32 10° N visible
06 Oct 6.0 02:39:40 19° NNE 02:39:40 19° NNE 02:40:58 10° NNE visible
06 Oct 5.7 04:16:14 17° NNW 04:16:14 17° NNW 04:17:47 10° N visible
07 Oct 6.0 02:48:09 19° N 02:48:09 19° N 02:49:25 10° NNE visible
07 Oct 5.8 04:24:43 14° NNW 04:24:43 14° NNW 04:25:57 10° NNW visible
08 Oct 6.0 02:56:39 18° N 02:56:39 18° N 02:57:50 10° N visible
08 Oct 6.0 04:33:13 12° NNW 04:33:13 12° NNW 04:34:00 10° NNW visible
